Location: Utrecht
(52.0907°N, 5.1214°E)
Time: 09:23:41
(UTC+02:00)

KKS-1 - Pass Details

Date: 29 June 2022
Orbit: 634 x 649 km, 98.2° (Epoch: 15 August)

Event Time Altitude Azimuth Distance (km) Brightness Sun altitude
Rises 01:44:09 0° 1° (N) 2,982 ? -14.7°
Reaches altitude 10° 01:47:29 10° 335° (NNW) 2,065 ? -14.7°
Maximum altitude 01:49:32 13° 308° (NW) 1,858 ? -14.7°
Drops below altitude 10° 01:51:36 10° 280° (W) 2,057 ? -14.6°
Sets 01:54:54 0° 254° (WSW) 2,960 ? -14.6°
